sat.trackr.live / text

‹ back to catalog

STARLINK-32360

NORAD 61007 · 2024-158T

PAYLOAD ACTIVE UNKNOWN

§ Identity

Operator
Country
US
Launch date
2024-09-05
Launch site
AFETR
Launch vehicle
Mass (kg)
RCS (m²)

Purposes: comms

External: N2YO · Heavens-Above · Gunter

§ Orbital elements

Epoch: 2026-09-21T07:05:02.263776Z

Period
93.85 min
Inclination
53.1592°
Eccentricity
0.0001330
Mean motion
15.34405026 rev/d
Perigee alt
461.8 km
Apogee alt
463.6 km
Semi-major
6,840.8 km
B*
8.7269e-5
RAAN
217.8177°
Arg perigee
91.6201°
Mean anomaly
268.4954°
Rev number
11,579

§ Raw data

STARLINK-323601 61007U 24158T   26264.29516509  .00002574  00000+0  87269-4 0  99942 61007  53.1592 217.8177 0001330  91.6201 268.4954 15.34405026115791

JSON: /api/v1/satellites/61007 · /tle

For live sub-satellite position, see the globe view (requires WebGL).

§ Visibility from observer

Set your observer location to see the next 7 days of passes ≥ 10°. The values pass through the URL so the page stays shareable.

No JS? Fill the form by hand. The geolocation button needs JavaScript.